TimeCDT,TemperatureF,Dew PointF,Humidity,Sea Level PressureIn,VisibilityMPH,Wind Direction,Wind SpeedMPH,Gust SpeedMPH,PrecipitationIn,Events,Conditions,WindDirDegrees,DateUTC
12:54 AM,46.0,39.9,79,30.19,10.0,North,6.9,-,N/A,,Clear,10,2012-10-10 05:54:00
1:54 AM,46.9,37.0,68,30.19,10.0,NNE,8.1,-,N/A,,Clear,20,2012-10-10 06:54:00
2:54 AM,43.0,36.0,76,30.20,10.0,NNE,4.6,-,N/A,,Clear,30,2012-10-10 07:54:00
3:54 AM,39.9,34.0,79,30.21,10.0,NNW,3.5,-,N/A,,Clear,330,2012-10-10 08:54:00
4:54 AM,37.9,32.0,79,30.24,10.0,Calm,Calm,-,N/A,,Clear,0,2012-10-10 09:54:00
5:54 AM,39.0,34.0,82,30.25,10.0,Calm,Calm,-,N/A,,Clear,0,2012-10-10 10:54:00
6:54 AM,37.0,33.1,86,30.27,10.0,Calm,Calm,-,N/A,,Clear,0,2012-10-10 11:54:00
7:54 AM,36.0,33.1,89,30.28,10.0,Calm,Calm,-,N/A,,Clear,0,2012-10-10 12:54:00
8:44 AM,41.0,35.6,81,30.28,6.0,Calm,Calm,-,N/A,,Haze,0,2012-10-10 13:44:00
8:54 AM,43.0,36.0,76,30.30,2.5,Calm,Calm,-,N/A,,Haze,0,2012-10-10 13:54:00
8:58 AM,44.6,35.6,71,30.29,3.0,Calm,Calm,-,N/A,,Haze,0,2012-10-10 13:58:00
9:54 AM,54.0,33.1,45,30.30,9.0,Calm,Calm,-,N/A,,Clear,0,2012-10-10 14:54:00
10:54 AM,59.0,28.9,32,30.31,10.0,ESE,5.8,-,N/A,,Clear,120,2012-10-10 15:54:00
11:54 AM,62.1,28.0,28,30.30,10.0,Calm,Calm,-,N/A,,Clear,0,2012-10-10 16:54:00
12:54 PM,63.0,28.9,28,30.28,10.0,Variable,3.5,-,N/A,,Clear,0,2012-10-10 17:54:00
1:54 PM,66.0,28.0,24,30.23,10.0,Variable,4.6,-,N/A,,Clear,0,2012-10-10 18:54:00
2:54 PM,66.0,28.0,24,30.20,10.0,ESE,8.1,-,N/A,,Clear,110,2012-10-10 19:54:00
3:54 PM,66.9,28.9,24,30.18,10.0,Calm,Calm,-,N/A,,Clear,0,2012-10-10 20:54:00
4:54 PM,66.0,28.9,25,30.16,7.0,ESE,4.6,-,N/A,,Clear,120,2012-10-10 21:54:00
5:54 PM,66.0,30.0,26,30.14,10.0,ESE,5.8,-,N/A,,Clear,110,2012-10-10 22:54:00
6:54 PM,63.0,30.0,29,30.14,10.0,SE,8.1,-,N/A,,Clear,130,2012-10-10 23:54:00
7:54 PM,59.0,32.0,36,30.15,10.0,ESE,6.9,-,N/A,,Mostly Cloudy,120,2012-10-11 00:54:00
8:54 PM,55.9,32.0,40,30.14,10.0,ESE,5.8,-,N/A,,Clear,120,2012-10-11 01:54:00
9:54 PM,54.0,33.1,45,30.14,10.0,SE,6.9,-,N/A,,Clear,130,2012-10-11 02:54:00
10:54 PM,53.1,33.1,47,30.14,10.0,SE,6.9,-,N/A,,Clear,130,2012-10-11 03:54:00
11:54 PM,53.1,35.1,50,30.14,10.0,East,4.6,-,N/A,,Overcast,100,2012-10-11 04:54:00